Beaufort, SC

9:25 AM EST on February 23, 2017 (GMT -0500)
Beaufort Marine Corps Air Station

Weather History for KNBC - June, 2012

Change the Weather History Date:

Wednesday, June 6, 2012

  Actual Average Record
Temperature  
Mean Temperature 71 °F -  
Max Temperature 75 °F 85 °F 102 °F (1943)
Min Temperature 69 °F 68 °F 52 °F (1966)
Cooling Degree Days 6    
Growing Degree Days 21 (Base 50)    
Moisture  
Dew Point 65 °F    
Average Humidity 83    
Maximum Humidity 93    
Minimum Humidity 68    
Precipitation  
Precipitation 0.56 in - - ()
Sea Level Pressure  
Sea Level Pressure 29.86 in    
Wind  
Wind Speed 5 mph (ENE)    
Max Wind Speed 15 mph    
Max Gust Speed 20 mph    
Visibility 8 miles    
Events Rain    
Averages and records for this station are not official NWS values.
T = Trace of Precipitation, MM = Missing Value Source: NWS Daily Summary

Daily Weather History Graph

Daily Weather History Graph

Search for Another Location

Airport or City:

Trip Planner

Search our weather history database for the weather conditions in past years. The results will help you decide how hot, cold, wet, or windy it might be!

Date:

Astronomy

Jun. 06, 2012 Rise Set
Actual Time 6:15 AM EDT 8:28 PM EDT
Civil Twilight 5:47 AM EDT 8:56 PM EDT
Nautical Twilight 5:12 AM EDT 9:30 PM EDT
Astronomical Twilight 4:35 AM EDT 10:08 PM EDT
Moon 10:44 PM EDT (6/6) 8:31 AM EDT (6/6)
Length of Visible Light 15h 09m
Length of Day
14h 12m
Waning Gibbous, 93% of the Moon is Illuminated
Jun 6
Waning Gibbous
Jun 11
Last Quarter
Jun 19
New
Jun 26
First Quarter
Jul 3
Full

Hourly Weather History & Observations

Time (EDT) Temp. Dew Point Humidity Pressure Visibility Wind Dir Wind Speed Gust Speed Precip Events Conditions
12:56 AM 71.1 °F 64.0 °F 78% 29.84 in 10.0 mi ESE 4.6 mph - N/A   Overcast
1:56 AM 71.1 °F 64.9 °F 81% 29.84 in 10.0 mi ESE 4.6 mph - N/A   Overcast
2:46 AM 69.8 °F 64.4 °F 83% 29.83 in 7.0 mi ENE 5.8 mph - 0.02 in Rain Rain
2:56 AM 69.1 °F 66.0 °F 90% 29.83 in 5.0 mi ENE 4.6 mph - 0.04 in Rain Rain
3:30 AM 69.8 °F 66.2 °F 88% 29.82 in 10.0 mi ENE 4.6 mph - 0.00 in   Overcast
3:56 AM 70.0 °F 66.0 °F 87% 29.81 in 10.0 mi East 4.6 mph - 0.00 in   Overcast
4:56 AM 69.1 °F 66.9 °F 93% 29.81 in 9.0 mi East 5.8 mph - 0.08 in   Overcast
5:04 AM 69.8 °F 66.2 °F 88% 29.80 in 10.0 mi ESE 5.8 mph - N/A   Overcast
5:56 AM 70.0 °F 66.9 °F 90% 29.81 in 8.0 mi ESE 4.6 mph - 0.00 in   Overcast
6:25 AM 69.8 °F 66.2 °F 88% 29.80 in 7.0 mi ESE 6.9 mph - 0.02 in Rain Light Rain
6:56 AM 69.1 °F 66.9 °F 93% 29.81 in 4.0 mi SE 4.6 mph - 0.06 in Rain Light Rain
7:43 AM 69.8 °F 66.2 °F 88% 29.82 in 2.0 mi Calm Calm - 0.18 in Rain Heavy Rain
7:56 AM 70.0 °F 66.9 °F 90% 29.82 in 2.0 mi Calm Calm - 0.22 in Rain Light Rain
8:00 AM 69.8 °F 66.2 °F 88% 29.82 in 4.0 mi WNW 3.5 mph - 0.00 in Rain Rain
8:12 AM 69.8 °F 66.2 °F 88% 29.83 in 1.5 mi WNW 3.5 mph - 0.04 in Rain Heavy Rain
8:20 AM 69.8 °F 66.2 °F 88% 29.83 in 1.5 mi West 3.5 mph - 0.06 in Rain Light Rain
8:40 AM 69.8 °F 66.2 °F 88% 29.82 in 3.0 mi Calm Calm - 0.12 in Rain Light Rain
8:56 AM 70.0 °F 68.0 °F 93% 29.82 in 3.0 mi NE 3.5 mph - 0.14 in Rain Light Rain
9:56 AM 72.0 °F 66.0 °F 81% 29.83 in 4.0 mi West 4.6 mph - 0.02 in Rain Light Rain
10:56 AM 73.0 °F 68.0 °F 84% 29.83 in 10.0 mi NNE 6.9 mph - 0.00 in   Mostly Cloudy
11:03 AM 73.4 °F 69.8 °F 88% 29.83 in 10.0 mi NE 8.1 mph - N/A   Mostly Cloudy
11:28 AM 73.4 °F 69.8 °F 88% 29.83 in 10.0 mi NE 5.8 mph - N/A   Overcast
11:56 AM 73.9 °F 68.0 °F 82% 29.84 in 10.0 mi North 5.8 mph - N/A   Overcast
12:56 PM 72.0 °F 66.9 °F 84% 29.86 in 10.0 mi NE 11.5 mph - 0.00 in   Light Drizzle
1:54 PM 71.6 °F 66.2 °F 83% 29.87 in 4.0 mi NE 12.7 mph - 0.00 in   Light Drizzle
1:56 PM 71.1 °F 66.0 °F 84% 29.87 in 4.0 mi NE 15.0 mph 19.6 mph 0.00 in   Light Drizzle
2:56 PM 73.9 °F 63.0 °F 68% 29.88 in 10.0 mi NE 9.2 mph 18.4 mph 0.00 in   Overcast
3:56 PM 73.0 °F 63.0 °F 71% 29.90 in 10.0 mi East 6.9 mph - N/A   Overcast
4:56 PM 73.0 °F 63.0 °F 71% 29.91 in 10.0 mi East 10.4 mph - N/A   Overcast
5:14 PM 73.4 °F 62.6 °F 69% 29.92 in 10.0 mi East 4.6 mph - N/A   Overcast
5:56 PM 73.0 °F 63.0 °F 71% 29.93 in 10.0 mi ENE 3.5 mph - N/A   Overcast
6:56 PM 72.0 °F 64.0 °F 76% 29.94 in 10.0 mi ENE 8.1 mph - N/A   Overcast
7:56 PM 71.1 °F 64.0 °F 78% 29.93 in 10.0 mi NNE 4.6 mph - N/A   Mostly Cloudy
8:56 PM 70.0 °F 63.0 °F 78% 29.94 in 10.0 mi ENE 3.5 mph - N/A   Clear
9:56 PM 69.1 °F 63.0 °F 81% 29.97 in 10.0 mi NE 6.9 mph - N/A   Mostly Cloudy
10:29 PM 69.8 °F 62.6 °F 78% 29.98 in 10.0 mi ENE 8.1 mph - N/A   Mostly Cloudy
10:56 PM 69.1 °F 62.1 °F 78% 29.98 in 10.0 mi NE 5.8 mph - N/A   Overcast
11:56 PM 69.1 °F 62.1 °F 78% 29.98 in 10.0 mi NE 4.6 mph - N/A   Partly Cloudy